Estación Meteorológica Peña el Pijo (Robertgarden) [ 12/16/19 00:58:47 CET ]

Fecha Hora Presion(HPa) Temp (°C) Humedad % Rocio (°C) Viento ( m/s) Direccion Lluvia 1Hora(mm) Lluvia 24H(mm) LLuvia Total(mm)
2019-Dec-13 01:09:17 1004.200 - - - - S     39.88
2019-Dec-13 02:10:48 1003.200 - - - - S     39.88
2019-Dec-13 03:10:29 1004.000 - - - - S     39.88
2019-Dec-13 04:14:02 1003.700 - - - - S     39.88
2019-Dec-13 05:09:32 1003.700 - - - - S     39.88
2019-Dec-13 06:09:25 1003.400 - - - - S     39.88
2019-Dec-13 07:09:11 1003.600 - - - - S     39.88
2019-Dec-13 08:09:15 1003.600 - - - - S     39.88
2019-Dec-13 09:09:41 1003.800 - - - - S     39.88
2019-Dec-13 10:09:09 1004.100 - - - - S     39.88
2019-Dec-13 11:09:18 1005.400 - - - - S     39.88
2019-Dec-13 12:09:03 1005.500 - - - - S     39.88
2019-Dec-13 13:08:56 1004.900 - - - - S     39.88
2019-Dec-13 14:08:45 1004.700 - - - - S     39.88
2019-Dec-13 15:09:37 1005.300 - - - - S     39.88
2019-Dec-13 16:09:14 1005.800 - - - - S     39.88
2019-Dec-13 17:09:22 1007.000 - - - - S     39.88
2019-Dec-13 18:09:14 1007.600 - - - - S     39.88
2019-Dec-13 19:09:17 1008.000 - - - - S     39.88
2019-Dec-13 20:09:01 1007.900 - - - - S     39.88
2019-Dec-13 21:09:14 1008.000 - - - - S     39.88
2019-Dec-13 22:09:22 1008.400 - - - - S     39.88
2019-Dec-13 23:09:11 1007.900 - - - - S     39.88

Temperatura Máxima:    Temperatura Mínima:
Presión Máxima:1008.400 Hpa    Presión Mínima:1003.200 Hpa


Volver